Location: Prostejov
(49.4670°N, 17.1170°E)
Time: 17:06:18
(UTC+02:00)

ISS - Visible Passes

Search period start: 26 June 2022 00:00
Search period end: 06 July 2022 00:00
Orbit: 415 x 420 km, 51.6° (Epoch: 26 June)

Date Brightness Start Highest point End Pass type
(mag) Time Alt. Az. Time Alt. Az. Time Alt. Az.
29 Jun -1.7 03:22:14 11° S 03:24:18 17° SE 03:26:36 10° E visible
30 Jun -1.3 02:35:50 11° SE 02:36:24 11° SE 02:37:31 10° ESE visible
01 Jul -2.9 03:22:16 16° SSW 03:24:30 36° SSE 03:27:38 10° E visible
02 Jul -2.4 02:35:45 22° SSE 02:36:29 24° SE 02:39:18 10° E visible
03 Jul -1.7 01:49:10 16° SE 01:49:10 16° SE 01:50:45 10° E visible
03 Jul -3.8 03:22:04 14° WSW 03:24:51 71° SSE 03:28:12 10° ENE visible
04 Jul -3.5 02:35:26 30° SSW 02:36:44 50° SSE 02:40:00 10° ENE visible
05 Jul -3.0 01:48:46 34° SE 01:48:46 34° SE 01:51:44 10° E visible
05 Jul -3.6 03:21:54 10° W 03:25:16 73° NNW 03:28:38 10° ENE visible
